• In Uzbekistan
  • List of Countries
  • For 7 days
  • Water Temperature
  • Satellite Maps
  • Weather Map
  • Weather Widgets
  • user-avatar
    Login

    Hourly Weather Udor

    Today, 24 June, Sunday

    Time Temperature Precipitation Wind Pressure Humidity
    00:00 +16°C° 0 mm 2 mps 745 mmHg 75%
    01:00 +16°C° 0 mm 1 mps 746 mmHg 75%
    02:00 +15°C° 0 mm 1 mps 746 mmHg 75%
    03:00 +15°C° 0 mm 1 mps 746 mmHg 77%
    04:00 +18°C° 0 mm 1 mps 746 mmHg 71%
    05:00 +19°C° 0 mm 1 mps 747 mmHg 65%
    06:00 +21°C° 0 mm 1 mps 747 mmHg 59%
    07:00 +23°C° 0 mm 1 mps 747 mmHg 52%
    08:00 +25°C° 0 mm 1 mps 747 mmHg 44%
    09:00 +27°C° 0 mm 1 mps 747 mmHg 36%
    10:00 +28°C° 0 mm 1 mps 747 mmHg 33%
    11:00 +28°C° 0 mm 1 mps 747 mmHg 30%
    12:00 +29°C° 0 mm 2 mps 747 mmHg 27%
    13:00 +30°C° 0 mm 2 mps 747 mmHg 26%
    14:00 +30°C° 0 mm 2 mps 747 mmHg 26%
    15:00 +30°C° 0 mm 2 mps 747 mmHg 26%
    16:00 +30°C° 0 mm 1 mps 747 mmHg 28%
    17:00 +30°C° 0 mm 1 mps 747 mmHg 30%
    18:00 +29°C° 0 mm 1 mps 747 mmHg 32%
    19:00 +27°C° 0 mm 1 mps 747 mmHg 38%
    20:00 +25°C° 0 mm 1 mps 747 mmHg 44%
    21:00 +21°C° 0 mm 0 mps 747 mmHg 51%
    22:00 +22°C° 0 mm 1 mps 747 mmHg 52%
    23:00 +21°C° 0 mm 1 mps 747 mmHg 54%

    Tomorrow, 25 June, Monday

    Time Temperature Precipitation Wind Pressure Humidity
    00:00 +20°C° 0 mm 1 mps 747 mmHg 56%
    01:00 +19°C° 0 mm 2 mps 748 mmHg 58%
    02:00 +19°C° 0 mm 2 mps 748 mmHg 60%
    03:00 +19°C° 0 mm 2 mps 748 mmHg 62%
    04:00 +20°C° 0.2 mm 2 mps 748 mmHg 62%
    05:00 +21°C° 0.2 mm 2 mps 748 mmHg 63%
    06:00 +24°C° 0.2 mm 2 mps 748 mmHg 63%
    07:00 +26°C° 0.1 mm 2 mps 748 mmHg 58%
    08:00 +28°C° 0.1 mm 3 mps 748 mmHg 54%
    09:00 +30°C° 0.1 mm 3 mps 748 mmHg 49%
    10:00 +31°C° 0 mm 3 mps 747 mmHg 46%
    11:00 +33°C° 0 mm 4 mps 747 mmHg 42%
    12:00 +34°C° 0 mm 4 mps 747 mmHg 39%
    13:00 +34°C° 0 mm 4 mps 747 mmHg 40%
    14:00 +34°C° 0 mm 4 mps 747 mmHg 40%
    15:00 +34°C° 0 mm 4 mps 747 mmHg 41%
    16:00 +33°C° 0 mm 4 mps 747 mmHg 42%
    17:00 +33°C° 0 mm 3 mps 747 mmHg 43%
    18:00 +33°C° 0 mm 3 mps 747 mmHg 44%
    19:00 +30°C° 0 mm 3 mps 747 mmHg 52%
    20:00 +28°C° 0 mm 2 mps 747 mmHg 59%
    21:00 +26°C° 0 mm 2 mps 747 mmHg 67%
    22:00 +25°C° 0.6 mm 2 mps 747 mmHg 74%
    23:00 +23°C° 0.6 mm 2 mps 747 mmHg 82%

    Day after tomorrow, 26 June, Tuesday

    Time Temperature Precipitation Wind Pressure Humidity
    00:00 +22°C° 0.6 mm 1 mps 747 mmHg 90%
    01:00 +22°C° 0.3 mm 1 mps 747 mmHg 91%
    02:00 +22°C° 0.3 mm 1 mps 747 mmHg 92%
    03:00 +21°C° 0.3 mm 1 mps 748 mmHg 93%
    04:00 +21°C° 0.8 mm 1 mps 748 mmHg 93%
    05:00 +21°C° 0.8 mm 1 mps 748 mmHg 93%
    06:00 +22°C° 0.8 mm 1 mps 749 mmHg 93%
    07:00 +23°C° 0.1 mm 1 mps 749 mmHg 82%
    08:00 +25°C° 0.1 mm 2 mps 749 mmHg 71%
    09:00 +27°C° 0.1 mm 2 mps 749 mmHg 61%
    10:00 +28°C° 0.2 mm 2 mps 750 mmHg 56%
    11:00 +28°C° 0.2 mm 2 mps 750 mmHg 51%
    12:00 +29°C° 0.2 mm 2 mps 750 mmHg 47%
    13:00 +29°C° 0 mm 2 mps 750 mmHg 45%
    14:00 +29°C° 0 mm 2 mps 750 mmHg 43%
    15:00 +30°C° 0 mm 2 mps 750 mmHg 42%
    16:00 +29°C° 0 mm 1 mps 750 mmHg 42%
    17:00 +29°C° 0 mm 1 mps 750 mmHg 43%
    18:00 +29°C° 0 mm 1 mps 750 mmHg 43%
    19:00 +27°C° 0 mm 1 mps 750 mmHg 49%
    20:00 +25°C° 0 mm 1 mps 750 mmHg 55%
    21:00 +23°C° 0 mm 1 mps 750 mmHg 61%
    22:00 +22°C° 0 mm 1 mps 750 mmHg 63%
    23:00 +21°C° 0 mm 1 mps 750 mmHg 65%

    27 June, Wednesday

    Time Temperature Precipitation Wind Pressure Humidity
    00:00 +20°C° 0 mm 1 mps 750 mmHg 68%
    01:00 +19°C° 0 mm 1 mps 751 mmHg 69%
    02:00 +19°C° 0 mm 1 mps 751 mmHg 71%
    03:00 +18°C° 0 mm 1 mps 751 mmHg 73%
    04:00 +19°C° 0 mm 2 mps 751 mmHg 67%
    05:00 +20°C° 0 mm 2 mps 751 mmHg 61%
    06:00 +23°C° 0 mm 2 mps 751 mmHg 55%
    07:00 +24°C° 0 mm 2 mps 751 mmHg 49%
    08:00 +25°C° 0 mm 3 mps 751 mmHg 42%
    09:00 +27°C° 0 mm 3 mps 751 mmHg 36%
    10:00 +27°C° 0 mm 3 mps 751 mmHg 34%
    11:00 +28°C° 0 mm 3 mps 751 mmHg 32%
    12:00 +29°C° 0 mm 3 mps 750 mmHg 30%
    13:00 +29°C° 0 mm 4 mps 750 mmHg 30%
    14:00 +29°C° 0 mm 4 mps 750 mmHg 29%
    15:00 +29°C° 0 mm 4 mps 750 mmHg 28%
    16:00 +29°C° 0 mm 4 mps 750 mmHg 30%
    17:00 +28°C° 0 mm 3 mps 750 mmHg 32%
    18:00 +27°C° 0 mm 3 mps 750 mmHg 34%
    19:00 +26°C° 0 mm 3 mps 750 mmHg 41%
    20:00 +24°C° 0 mm 2 mps 750 mmHg 47%
    21:00 +21°C° 0 mm 2 mps 751 mmHg 53%
    22:00 +20°C° 0 mm 2 mps 751 mmHg 57%
    23:00 +19°C° 0 mm 2 mps 751 mmHg 61%

    28 June, Thursday

    Time Temperature Precipitation Wind Pressure Humidity
    00:00 +18°C° 0 mm 2 mps 751 mmHg 64%
    01:00 +17°C° 0 mm 2 mps 751 mmHg 67%
    02:00 +17°C° 0 mm 2 mps 751 mmHg 69%
    03:00 +17°C° 0 mm 2 mps 751 mmHg 71%
    04:00 +17°C° 0 mm 3 mps 752 mmHg 68%
    05:00 +18°C° 0 mm 3 mps 752 mmHg 65%
    06:00 +18°C° 0 mm 4 mps 752 mmHg 62%
    07:00 +19°C° 0.1 mm 4 mps 752 mmHg 59%
    08:00 +19°C° 0.1 mm 4 mps 753 mmHg 57%
    09:00 +20°C° 0.1 mm 4 mps 753 mmHg 54%
    10:00 +20°C° 0 mm 4 mps 753 mmHg 49%
    11:00 +21°C° 0 mm 3 mps 753 mmHg 44%
    12:00 +22°C° 0 mm 3 mps 753 mmHg 39%
    13:00 +22°C° 0 mm 3 mps 753 mmHg 39%
    14:00 +21°C° 0 mm 3 mps 753 mmHg 39%
    15:00 +21°C° 0 mm 3 mps 753 mmHg 39%
    16:00 +21°C° 0 mm 3 mps 753 mmHg 40%
    17:00 +20°C° 0 mm 3 mps 753 mmHg 42%
    18:00 +20°C° 0 mm 3 mps 753 mmHg 43%
    19:00 +19°C° 0 mm 2 mps 753 mmHg 48%
    20:00 +18°C° 0 mm 2 mps 754 mmHg 53%
    21:00 +18°C° 0 mm 1 mps 754 mmHg 59%
    22:00 +15°C° 0 mm 1 mps 754 mmHg 64%
    23:00 +14°C° 0 mm 1 mps 754 mmHg 70%

    29 June, Friday

    Time Temperature Precipitation Wind Pressure Humidity
    00:00 +12°C° 0 mm 1 mps 754 mmHg 76%
    01:00 +12°C° 0 mm 1 mps 755 mmHg 80%
    02:00 +11°C° 0 mm 1 mps 755 mmHg 84%
    03:00 +11°C° 0 mm 1 mps 755 mmHg 87%
    04:00 +12°C° 0 mm 1 mps 755 mmHg 78%
    05:00 +14°C° 0 mm 1 mps 755 mmHg 70%
    06:00 +16°C° 0 mm 1 mps 756 mmHg 61%
    07:00 +19°C° 0 mm 1 mps 755 mmHg 53%
    08:00 +19°C° 0 mm 0 mps 755 mmHg 45%
    09:00 +21°C° 0 mm 0 mps 755 mmHg 37%
    10:00 +21°C° 0 mm 0 mps 755 mmHg 37%
    11:00 +23°C° 0 mm 1 mps 754 mmHg 37%
    12:00 +23°C° 0 mm 1 mps 754 mmHg 37%
    13:00 +23°C° 0 mm 1 mps 754 mmHg 36%
    14:00 +24°C° 0 mm 2 mps 753 mmHg 35%
    15:00 +25°C° 0 mm 2 mps 753 mmHg 34%
    16:00 +25°C° 0 mm 2 mps 753 mmHg 34%
    17:00 +25°C° 0 mm 2 mps 752 mmHg 35%
    18:00 +25°C° 0 mm 2 mps 752 mmHg 35%
    19:00 +23°C° 0 mm 2 mps 752 mmHg 42%
    20:00 +20°C° 0 mm 2 mps 752 mmHg 50%
    21:00 +18°C° 0 mm 2 mps 751 mmHg 57%
    22:00 +18°C° 0 mm 2 mps 751 mmHg 59%
    23:00 +17°C° 0 mm 2 mps 751 mmHg 61%
    Show more